• In Deutschland
  • Länderverzeichnis
  • Für 7 Tage
  • Wassertemperatur
  • Satellitenkarten
  • Wetterkarte
  • Widgets
  • user-avatar
    Anmelden

    Stündliche Wetter Satif

    Heute, 26 Juni, Montag

    Zeit Temperatur Niederschläge Wind Luftdruck Luftfeuchtigkeit
    00:00 +23°C° 0 mm 2 m/S 673 mmHg 36%
    01:00 +23°C° 0 mm 2 m/S 672 mmHg 36%
    02:00 +23°C° 0 mm 2 m/S 672 mmHg 35%
    03:00 +23°C° 0 mm 2 m/S 672 mmHg 35%
    04:00 +24°C° 0 mm 2 m/S 672 mmHg 33%
    05:00 +25°C° 0 mm 2 m/S 672 mmHg 32%
    06:00 +26°C° 0 mm 2 m/S 672 mmHg 30%
    07:00 +29°C° 0 mm 3 m/S 673 mmHg 25%
    08:00 +33°C° 0 mm 3 m/S 674 mmHg 20%
    09:00 +36°C° 0 mm 4 m/S 674 mmHg 15%
    10:00 +37°C° 0 mm 4 m/S 675 mmHg 14%
    11:00 +38°C° 0 mm 4 m/S 675 mmHg 12%
    12:00 +40°C° 0 mm 3 m/S 675 mmHg 10%
    13:00 +39°C° 0 mm 3 m/S 675 mmHg 11%
    14:00 +39°C° 0 mm 3 m/S 674 mmHg 12%
    15:00 +39°C° 0 mm 3 m/S 674 mmHg 13%
    16:00 +37°C° 0 mm 3 m/S 673 mmHg 17%
    17:00 +35°C° 0 mm 2 m/S 673 mmHg 21%
    18:00 +34°C° 0 mm 2 m/S 673 mmHg 26%
    19:00 +30°C° 0 mm 1 m/S 673 mmHg 31%
    20:00 +28°C° 0 mm 1 m/S 673 mmHg 36%
    21:00 +26°C° 0 mm 1 m/S 673 mmHg 42%
    22:00 +26°C° 0 mm 1 m/S 673 mmHg 41%
    23:00 +26°C° 0 mm 1 m/S 673 mmHg 40%

    Morgen, 27 Juni, Dienstag

    Zeit Temperatur Niederschläge Wind Luftdruck Luftfeuchtigkeit
    00:00 +25°C° 0 mm 1 m/S 673 mmHg 39%
    01:00 +25°C° 0 mm 1 m/S 673 mmHg 38%
    02:00 +25°C° 0 mm 1 m/S 672 mmHg 37%
    03:00 +25°C° 0 mm 1 m/S 672 mmHg 37%
    04:00 +26°C° 0 mm 1 m/S 672 mmHg 34%
    05:00 +27°C° 0 mm 1 m/S 673 mmHg 31%
    06:00 +28°C° 0 mm 1 m/S 673 mmHg 28%
    07:00 +30°C° 0 mm 1 m/S 674 mmHg 24%
    08:00 +34°C° 0 mm 2 m/S 674 mmHg 20%
    09:00 +37°C° 0 mm 2 m/S 675 mmHg 16%
    10:00 +38°C° 0,1 mm 2 m/S 675 mmHg 15%
    11:00 +39°C° 0,1 mm 3 m/S 675 mmHg 15%
    12:00 +40°C° 0,1 mm 3 m/S 675 mmHg 14%
    13:00 +39°C° 0 mm 3 m/S 674 mmHg 14%
    14:00 +39°C° 0 mm 3 m/S 674 mmHg 15%
    15:00 +38°C° 0 mm 3 m/S 673 mmHg 16%
    16:00 +36°C° 0,2 mm 3 m/S 673 mmHg 21%
    17:00 +34°C° 0,2 mm 3 m/S 673 mmHg 26%
    18:00 +31°C° 0,2 mm 2 m/S 672 mmHg 31%
    19:00 +30°C° 0 mm 2 m/S 672 mmHg 34%
    20:00 +29°C° 0 mm 2 m/S 672 mmHg 37%
    21:00 +27°C° 0 mm 2 m/S 672 mmHg 40%
    22:00 +27°C° 0 mm 2 m/S 672 mmHg 41%
    23:00 +27°C° 0 mm 3 m/S 672 mmHg 42%

    übermorgen, 28 Juni, Mittwoch

    Zeit Temperatur Niederschläge Wind Luftdruck Luftfeuchtigkeit
    00:00 +26°C° 0 mm 3 m/S 671 mmHg 42%
    01:00 +25°C° 0 mm 2 m/S 671 mmHg 43%
    02:00 +25°C° 0 mm 2 m/S 671 mmHg 45%
    03:00 +24°C° 0 mm 1 m/S 670 mmHg 46%
    04:00 +25°C° 0 mm 1 m/S 671 mmHg 42%
    05:00 +26°C° 0 mm 1 m/S 671 mmHg 39%
    06:00 +27°C° 0 mm 1 m/S 671 mmHg 35%
    07:00 +29°C° 0 mm 2 m/S 672 mmHg 30%
    08:00 +31°C° 0 mm 3 m/S 673 mmHg 25%
    09:00 +35°C° 0 mm 3 m/S 673 mmHg 21%
    10:00 +36°C° 0 mm 4 m/S 673 mmHg 20%
    11:00 +36°C° 0 mm 5 m/S 673 mmHg 18%
    12:00 +38°C° 0 mm 6 m/S 673 mmHg 17%
    13:00 +38°C° 0 mm 6 m/S 673 mmHg 18%
    14:00 +38°C° 0 mm 6 m/S 673 mmHg 19%
    15:00 +36°C° 0 mm 6 m/S 672 mmHg 20%
    16:00 +34°C° 0 mm 5 m/S 672 mmHg 24%
    17:00 +33°C° 0 mm 4 m/S 672 mmHg 29%
    18:00 +30°C° 0 mm 3 m/S 671 mmHg 33%
    19:00 +28°C° 0 mm 3 m/S 671 mmHg 43%
    20:00 +25°C° 0 mm 2 m/S 671 mmHg 53%
    21:00 +23°C° 0 mm 1 m/S 671 mmHg 63%
    22:00 +22°C° 0 mm 1 m/S 671 mmHg 66%
    23:00 +22°C° 0 mm 1 m/S 671 mmHg 68%

    29 Juni, Donnerstag

    Zeit Temperatur Niederschläge Wind Luftdruck Luftfeuchtigkeit
    00:00 +21°C° 0 mm 1 m/S 671 mmHg 70%
    01:00 +20°C° 0 mm 1 m/S 670 mmHg 73%
    02:00 +20°C° 0 mm 1 m/S 670 mmHg 76%
    03:00 +19°C° 0 mm 1 m/S 670 mmHg 78%
    04:00 +20°C° 0 mm 1 m/S 670 mmHg 72%
    05:00 +21°C° 0 mm 1 m/S 670 mmHg 66%
    06:00 +22°C° 0 mm 1 m/S 671 mmHg 59%
    07:00 +25°C° 0 mm 1 m/S 672 mmHg 48%
    08:00 +28°C° 0 mm 1 m/S 672 mmHg 38%
    09:00 +30°C° 0 mm 1 m/S 673 mmHg 27%
    10:00 +31°C° 0 mm 2 m/S 673 mmHg 23%
    11:00 +34°C° 0 mm 3 m/S 673 mmHg 20%
    12:00 +35°C° 0 mm 4 m/S 673 mmHg 17%
    13:00 +34°C° 0 mm 4 m/S 673 mmHg 18%
    14:00 +34°C° 0 mm 4 m/S 673 mmHg 20%
    15:00 +34°C° 0 mm 5 m/S 673 mmHg 22%
    16:00 +32°C° 0 mm 4 m/S 672 mmHg 27%
    17:00 +30°C° 0 mm 3 m/S 672 mmHg 33%
    18:00 +28°C° 0 mm 2 m/S 672 mmHg 38%
    19:00 +26°C° 0 mm 2 m/S 672 mmHg 48%
    20:00 +24°C° 0 mm 2 m/S 671 mmHg 59%
    21:00 +21°C° 0 mm 2 m/S 671 mmHg 70%
    22:00 +20°C° 0 mm 2 m/S 671 mmHg 74%
    23:00 +19°C° 0 mm 2 m/S 670 mmHg 79%

    30 Juni, Freitag

    Zeit Temperatur Niederschläge Wind Luftdruck Luftfeuchtigkeit
    00:00 +18°C° 0 mm 2 m/S 670 mmHg 83%
    01:00 +19°C° 0 mm 1 m/S 669 mmHg 83%
    02:00 +18°C° 0 mm 1 m/S 669 mmHg 84%
    03:00 +18°C° 0 mm 1 m/S 668 mmHg 84%
    04:00 +19°C° 0 mm 1 m/S 669 mmHg 79%
    05:00 +20°C° 0 mm 1 m/S 669 mmHg 73%
    06:00 +21°C° 0 mm 1 m/S 670 mmHg 68%
    07:00 +24°C° 0 mm 1 m/S 670 mmHg 56%
    08:00 +27°C° 0 mm 1 m/S 671 mmHg 45%
    09:00 +29°C° 0 mm 1 m/S 672 mmHg 34%
    10:00 +31°C° 0 mm 2 m/S 672 mmHg 30%
    11:00 +34°C° 0 mm 4 m/S 672 mmHg 25%
    12:00 +35°C° 0 mm 5 m/S 672 mmHg 21%
    13:00 +35°C° 0 mm 5 m/S 671 mmHg 23%
    14:00 +34°C° 0 mm 5 m/S 671 mmHg 26%
    15:00 +34°C° 0 mm 5 m/S 671 mmHg 28%
    16:00 +30°C° 0 mm 5 m/S 670 mmHg 37%
    17:00 +28°C° 0 mm 5 m/S 670 mmHg 47%
    18:00 +25°C° 0 mm 5 m/S 670 mmHg 57%
    19:00 +23°C° 0,1 mm 4 m/S 670 mmHg 63%
    20:00 +21°C° 0,1 mm 4 m/S 671 mmHg 69%
    21:00 +19°C° 0,1 mm 3 m/S 671 mmHg 75%
    22:00 +19°C° 0,1 mm 3 m/S 672 mmHg 77%
    23:00 +18°C° 0,1 mm 2 m/S 672 mmHg 78%

    1 Juli, Samstag

    Zeit Temperatur Niederschläge Wind Luftdruck Luftfeuchtigkeit
    00:00 +17°C° 0,1 mm 2 m/S 672 mmHg 80%
    01:00 +17°C° 0 mm 2 m/S 671 mmHg 83%
    02:00 +16°C° 0 mm 2 m/S 671 mmHg 86%
    03:00 +15°C° 0 mm 2 m/S 671 mmHg 89%
    04:00 +16°C° 0 mm 2 m/S 671 mmHg 86%
    05:00 +16°C° 0 mm 2 m/S 672 mmHg 83%
    06:00 +16°C° 0 mm 3 m/S 672 mmHg 80%
    07:00 +18°C° 0 mm 3 m/S 673 mmHg 68%
    08:00 +20°C° 0 mm 3 m/S 673 mmHg 57%
    09:00 +22°C° 0 mm 4 m/S 674 mmHg 45%
    10:00 +23°C° 0 mm 4 m/S 674 mmHg 41%
    11:00 +25°C° 0 mm 4 m/S 675 mmHg 37%
    12:00 +26°C° 0 mm 4 m/S 675 mmHg 33%
    13:00 +26°C° 0 mm 4 m/S 675 mmHg 32%
    14:00 +26°C° 0 mm 4 m/S 675 mmHg 31%
    15:00 +26°C° 0 mm 4 m/S 675 mmHg 31%
    16:00 +23°C° 0 mm 4 m/S 675 mmHg 34%
    17:00 +22°C° 0 mm 4 m/S 675 mmHg 38%
    18:00 +21°C° 0 mm 4 m/S 674 mmHg 42%
    19:00 +19°C° 0 mm 3 m/S 674 mmHg 51%
    20:00 +17°C° 0 mm 3 m/S 674 mmHg 60%
    21:00 +15°C° 0 mm 2 m/S 675 mmHg 69%
    22:00 +15°C° 0 mm 2 m/S 674 mmHg 74%
    23:00 +14°C° 0 mm 2 m/S 674 mmHg 79%
    Mehr zeigen